| time (UTC) | temp C | wind direction | speed KPH | gust KPH | rain 1hr cm | rain 24hr cm | rain mn cm | humidity % | barometer mb |
| 20260504003005 | 16 | 199 | 3.2 | 11.3 | 0.00 | 0.00 | 0.00 | 43 | 1013.4 |
| 20260504002005 | 16 | 192 | 6.4 | 19.3 | 0.00 | 0.00 | 0.00 | 42 | 1013.4 |
| 20260504001504 | 16 | 197 | 6.4 | 19.3 | 0.00 | 0.00 | 0.00 | 42 | 1013.3 |
| 20260504001005 | 17 | 200 | 6.4 | 16.1 | 0.00 | 0.00 | 0.00 | 42 | 1013.4 |
| 20260504000505 | 17 | 197 | 6.4 | 16.1 | 0.00 | 0.00 | 0.00 | 41 | 1013.3 |
| 20260504000005 | 17 | 201 | 4.8 | 14.5 | 0.00 | 0.00 | 0.00 | 41 | 1013.3 |
| 20260503235505 | 17 | 198 | 6.4 | 14.5 | 0.00 | 0.00 | 0.00 | 41 | 1013.3 |
| 20260503235005 | 17 | 203 | 8.0 | 14.5 | 0.00 | 0.00 | 0.00 | 41 | 1013.5 |
| 20260503234505 | 17 | 213 | 6.4 | 14.5 | 0.00 | 0.00 | 0.00 | 41 | 1013.4 |
| 20260503234004 | 17 | 220 | 6.4 | 14.5 | 0.00 | 0.00 | 0.00 | 40 | 1013.3 |
| 20260503233504 | 17 | 221 | 8.0 | 19.3 | 0.00 | 0.00 | 0.00 | 40 | 1013.3 |
| 20260503233005 | 17 | 214 | 6.4 | 19.3 | 0.00 | 0.00 | 0.00 | 40 | 1013.3 |
| 20260503232504 | 17 | 221 | 8.0 | 20.9 | 0.00 | 0.00 | 0.00 | 39 | 1013.4 |
| 20260503232005 | 17 | 218 | 11.3 | 25.7 | 0.00 | 0.00 | 0.00 | 40 | 1013.3 |
| 20260503230504 | 18 | 208 | 8.0 | 16.1 | 0.00 | 0.00 | 0.00 | 39 | 1013.6 |
| 20260503230006 | 18 | 201 | 6.4 | 16.1 | 0.00 | 0.00 | 0.00 | 39 | 1013.7 |
| 20260503225505 | 18 | 197 | 6.4 | 20.9 | 0.00 | 0.00 | 0.00 | 39 | 1013.8 |
| 20260503225004 | 18 | 195 | 6.4 | 20.9 | 0.00 | 0.00 | 0.00 | 38 | 1013.9 |
| 20260503224005 | 18 | 201 | 8.0 | 19.3 | 0.00 | 0.00 | 0.00 | 37 | 1014.2 |
| 20260503223505 | 18 | 196 | 8.0 | 19.3 | 0.00 | 0.00 | 0.00 | 35 | 1014.2 |
| 20260503223004 | 18 | 220 | 8.0 | 19.3 | 0.00 | 0.00 | 0.00 | 35 | 1014.3 |
| 20260503222505 | 18 | 246 | 9.7 | 19.3 | 0.00 | 0.00 | 0.00 | 34 | 1014.4 |
| 20260503222005 | 19 | 234 | 11.3 | 19.3 | 0.00 | 0.00 | 0.00 | 34 | 1014.4 |
| 20260503221005 | 19 | 225 | 8.0 | 22.5 | 0.00 | 0.00 | 0.00 | 35 | 1014.5 |
| 20260503220504 | 18 | 212 | 9.7 | 22.5 | 0.00 | 0.00 | 0.00 | 36 | 1014.3 |
| 20260503220004 | 18 | 215 | 9.7 | 16.1 | 0.00 | 0.00 | 0.00 | 35 | 1014.4 |
| 20260503215504 | 19 | 212 | 9.7 | 20.9 | 0.00 | 0.00 | 0.00 | 33 | 1014.7 |
| 20260503215004 | 19 | 218 | 11.3 | 22.5 | 0.00 | 0.00 | 0.00 | 33 | 1015.0 |
| 20260503214505 | 19 | 208 | 11.3 | 25.7 | 0.00 | 0.00 | 0.00 | 33 | 1015.0 |
| 20260503213505 | 19 | 217 | 11.3 | 24.1 | 0.00 | 0.00 | 0.00 | 34 | 1015.2 |
| 20260503213005 | 19 | 229 | 9.7 | 22.5 | 0.00 | 0.00 | 0.00 | 32 | 1015.3 |
| 20260503212504 | 19 | 240 | 11.3 | 27.4 | 0.00 | 0.00 | 0.00 | 34 | 1015.3 |
| 20260503212004 | 19 | 219 | 14.5 | 27.4 | 0.00 | 0.00 | 0.00 | 31 | 1015.5 |
| 20260503211504 | 19 | 207 | 11.3 | 27.4 | 0.00 | 0.00 | 0.00 | 33 | 1015.4 |
| 20260503211004 | 19 | 210 | 9.7 | 22.5 | 0.00 | 0.00 | 0.00 | 31 | 1015.1 |
| 20260503210505 | 19 | 198 | 9.7 | 22.5 | 0.00 | 0.00 | 0.00 | 31 | 1015.0 |
| 20260503210005 | 20 | 198 | 9.7 | 22.5 | 0.00 | 0.00 | 0.00 | 33 | 1015.1 |
| 20260503205505 | 20 | 221 | 9.7 | 20.9 | 0.00 | 0.00 | 0.00 | 33 | 1015.2 |
| 20260503205005 | 20 | 238 | 11.3 | 27.4 | 0.00 | 0.00 | 0.00 | 32 | 1015.4 |
| 20260503204004 | 19 | 220 | 8.0 | 17.7 | 0.00 | 0.00 | 0.00 | 34 | 1015.6 |
| 20260503203005 | 18 | 225 | 12.9 | 29.0 | 0.00 | 0.00 | 0.00 | 33 | 1015.7 |
| 20260503202505 | 18 | 226 | 12.9 | 29.0 | 0.00 | 0.00 | 0.00 | 31 | 1015.8 |
| 20260503202005 | 19 | 210 | 9.7 | 24.1 | 0.00 | 0.00 | 0.00 | 31 | 1016.0 |
| 20260503201005 | 18 | 170 | 8.0 | 12.9 | 0.00 | 0.00 | 0.00 | 33 | 1016.1 |
| 20260503200504 | 19 | 197 | 8.0 | 22.5 | 0.00 | 0.00 | 0.00 | 34 | 1016.2 |
| 20260503200005 | 19 | 224 | 9.7 | 22.5 | 0.00 | 0.00 | 0.00 | 31 | 1016.3 |
| 20260503195005 | 19 | 221 | 8.0 | 22.5 | 0.00 | 0.00 | 0.00 | 33 | 1016.5 |
| 20260503194504 | 19 | 224 | 9.7 | 22.5 | 0.00 | 0.00 | 0.00 | 32 | 1016.7 |
| 20260503194005 | 18 | 227 | 9.7 | 20.9 | 0.00 | 0.00 | 0.00 | 35 | 1016.9 |
| 20260503193504 | 18 | 216 | 9.7 | 20.9 | 0.00 | 0.00 | 0.00 | 33 | 1017.1 |
| 20260503193005 | 18 | 210 | 8.0 | 20.9 | 0.00 | 0.00 | 0.00 | 33 | 1017.2 |
| 20260503192504 | 18 | 210 | 8.0 | 17.7 | 0.00 | 0.00 | 0.00 | 32 | 1017.3 |
| 20260503192004 | 18 | 207 | 8.0 | 19.3 | 0.00 | 0.00 | 0.00 | 32 | 1017.4 |
| 20260503191504 | 18 | 213 | 9.7 | 19.3 | 0.00 | 0.00 | 0.00 | 35 | 1017.4 |
| 20260503191004 | 18 | 227 | 8.0 | 19.3 | 0.00 | 0.00 | 0.00 | 34 | 1017.5 |
| 20260503190504 | 18 | 239 | 9.7 | 29.0 | 0.00 | 0.00 | 0.00 | 33 | 1017.5 |
| 20260503184505 | 18 | 217 | 9.7 | 20.9 | 0.00 | 0.00 | 0.00 | 34 | 1017.9 |
| 20260503184005 | 18 | 227 | 11.3 | 20.9 | 0.00 | 0.00 | 0.00 | 35 | 1017.9 |
| 20260503183505 | 18 | 226 | 9.7 | 17.7 | 0.00 | 0.00 | 0.00 | 34 | 1018.1 |
| 20260503183005 | 18 | 198 | 8.0 | 20.9 | 0.00 | 0.00 | 0.00 | 36 | 1018.2 |
| 20260503182505 | 17 | 193 | 9.7 | 20.9 | 0.00 | 0.00 | 0.00 | 35 | 1018.2 |
| 20260503182006 | 17 | 196 | 8.0 | 20.9 | 0.00 | 0.00 | 0.00 | 35 | 1018.2 |
| 20260503181505 | 17 | 211 | 8.0 | 29.0 | 0.00 | 0.00 | 0.00 | 36 | 1018.2 |
| 20260503181005 | 17 | 217 | 11.3 | 29.0 | 0.00 | 0.00 | 0.00 | 34 | 1018.4 |
| 20260503180504 | 17 | 194 | 11.3 | 22.5 | 0.00 | 0.00 | 0.00 | 37 | 1018.4 |
| 20260503180005 | 17 | 153 | 9.7 | 20.9 | 0.00 | 0.00 | 0.00 | 39 | 1018.5 |
| 20260503174504 | 17 | 178 | 8.0 | 20.9 | 0.00 | 0.00 | 0.00 | 35 | 1018.7 |
| 20260503174005 | 17 | 177 | 8.0 | 20.9 | 0.00 | 0.00 | 0.00 | 37 | 1018.7 |
| 20260503173505 | 17 | 164 | 8.0 | 17.7 | 0.00 | 0.00 | 0.00 | 39 | 1018.8 |
| 20260503173005 | 17 | 179 | 8.0 | 17.7 | 0.00 | 0.00 | 0.00 | 36 | 1018.9 |
| 20260503172505 | 17 | 205 | 9.7 | 20.9 | 0.00 | 0.00 | 0.00 | 37 | 1019.0 |
| 20260503171505 | 17 | 183 | 6.4 | 16.1 | 0.00 | 0.00 | 0.00 | 40 | 1019.2 |
| 20260503171004 | 17 | 184 | 6.4 | 16.1 | 0.00 | 0.00 | 0.00 | 38 | 1019.4 |
| 20260503170505 | 17 | 187 | 6.4 | 14.5 | 0.00 | 0.00 | 0.00 | 36 | 1019.4 |
| 20260503151005 | 14 | 223 | 8.0 | 12.9 | 0.00 | 0.00 | 0.00 | 45 | 1020.6 |
| 20260503150504 | 14 | 232 | 8.0 | 12.9 | 0.00 | 0.00 | 0.00 | 44 | 1020.7 |
| 20260503131005 | 8 | 205 | 8.0 | 16.1 | 0.00 | 0.00 | 0.00 | 64 | 1020.7 |
| 20260503130504 | 8 | 215 | 6.4 | 16.1 | 0.00 | 0.00 | 0.00 | 67 | 1020.7 |
| 20260503110504 | 1 | 0 | 0.0 | 0.0 | 0.00 | 0.00 | 0.00 | 82 | 1020.1 |
| 20260503090504 | 1 | 0 | 0.0 | 0.0 | 0.00 | 0.00 | 0.00 | 78 | 1019.7 |
| 20260503081504 | 1 | 0 | 0.0 | 0.0 | 0.00 | 0.00 | 0.00 | 76 | 1019.5 |
| 20260503081005 | 2 | 0 | 0.0 | 0.0 | 0.00 | 0.00 | 0.00 | 76 | 1019.5 |
| 20260503080504 | 2 | 0 | 0.0 | 0.0 | 0.00 | 0.00 | 0.00 | 76 | 1019.5 |
| 20260503072504 | 2 | 0 | 0.0 | 0.0 | 0.00 | 0.00 | 0.00 | 74 | 1019.3 |
| 20260503072004 | 2 | 0 | 0.0 | 0.0 | 0.00 | 0.00 | 0.00 | 74 | 1019.2 |
| 20260503071504 | 2 | 0 | 0.0 | 0.0 | 0.00 | 0.00 | 0.00 | 74 | 1019.2 |
| 20260503071004 | 2 | 0 | 0.0 | 0.0 | 0.00 | 0.00 | 0.00 | 74 | 1019.3 |
| 20260503070504 | 2 | 0 | 0.0 | 0.0 | 0.00 | 0.00 | 0.00 | 73 | 1019.3 |
| 20260503055005 | 3 | 0 | 0.0 | 0.0 | 0.00 | 0.00 | 0.00 | 69 | 1019.5 |
| 20260503054504 | 4 | 0 | 0.0 | 0.0 | 0.00 | 0.00 | 0.00 | 69 | 1019.5 |
| 20260503054004 | 4 | 0 | 0.0 | 0.0 | 0.00 | 0.00 | 0.00 | 69 | 1019.5 |
| 20260503053504 | 4 | 0 | 0.0 | 0.0 | 0.00 | 0.00 | 0.00 | 68 | 1019.5 |
| 20260503053004 | 4 | 0 | 0.0 | 0.0 | 0.00 | 0.00 | 0.00 | 68 | 1019.5 |
| 20260503052504 | 4 | 0 | 0.0 | 0.0 | 0.00 | 0.00 | 0.00 | 68 | 1019.5 |
| 20260503052004 | 5 | 0 | 0.0 | 0.0 | 0.00 | 0.00 | 0.00 | 68 | 1019.4 |
| 20260503051504 | 5 | 0 | 0.0 | 0.0 | 0.00 | 0.00 | 0.00 | 68 | 1019.4 |
| 20260503051004 | 5 | 0 | 0.0 | 0.0 | 0.00 | 0.00 | 0.00 | 67 | 1019.4 |
| 20260503050005 | 5 | 0 | 0.0 | 0.0 | 0.00 | 0.00 | 0.00 | 67 | 1019.4 |
| 20260503045504 | 5 | 0 | 0.0 | 0.0 | 0.00 | 0.00 | 0.00 | 65 | 1019.4 |
| 20260503045005 | 5 | 0 | 0.0 | 0.0 | 0.00 | 0.00 | 0.00 | 64 | 1019.5 |
| 20260503044504 | 5 | 0 | 0.0 | 0.0 | 0.00 | 0.00 | 0.00 | 64 | 1019.4 |
| 20260503043505 | 6 | 0 | 0.0 | 0.0 | 0.00 | 0.00 | 0.00 | 63 | 1019.4 |
| 20260503042504 | 6 | 0 | 0.0 | 0.0 | 0.00 | 0.00 | 0.00 | 62 | 1019.3 |
| 20260503041004 | 6 | 0 | 0.0 | 0.0 | 0.00 | 0.00 | 0.00 | 61 | 1019.3 |
| 20260503040009 | 7 | 0 | 0.0 | 0.0 | 0.00 | 0.00 | 0.00 | 61 | 1019.3 |
| 20260503035005 | 7 | 0 | 0.0 | 0.0 | 0.00 | 0.00 | 0.00 | 61 | 1019.3 |
| 20260503034004 | 7 | 0 | 0.0 | 0.0 | 0.00 | 0.00 | 0.00 | 58 | 1019.3 |
| 20260503033004 | 8 | 0 | 0.0 | 0.0 | 0.00 | 0.00 | 0.00 | 58 | 1019.2 |
| 20260503032504 | 8 | 0 | 0.0 | 0.0 | 0.00 | 0.00 | 0.00 | 58 | 1019.2 |
| 20260503032004 | 8 | 0 | 0.0 | 0.0 | 0.00 | 0.00 | 0.00 | 58 | 1019.2 |
| 20260503031504 | 8 | 0 | 0.0 | 3.2 | 0.00 | 0.00 | 0.00 | 57 | 1019.1 |
| 20260503031004 | 8 | 0 | 0.0 | 3.2 | 0.00 | 0.00 | 0.00 | 56 | 1019.1 |
| 20260503030504 | 9 | 9 | 1.6 | 4.8 | 0.00 | 0.00 | 0.00 | 55 | 1019.1 |
| 20260503030005 | 9 | 9 | 1.6 | 4.8 | 0.00 | 0.00 | 0.00 | 55 | 1019.1 |
| 20260503025004 | 10 | 0 | 0.0 | 3.2 | 0.00 | 0.00 | 0.00 | 55 | 1019.1 |
| 20260503024004 | 10 | 0 | 0.0 | 3.2 | 0.00 | 0.00 | 0.00 | 54 | 1019.0 |
| 20260503023504 | 10 | 0 | 0.0 | 3.2 | 0.00 | 0.00 | 0.00 | 54 | 1018.9 |
| 20260503023004 | 10 | 0 | 0.0 | 3.2 | 0.00 | 0.00 | 0.00 | 54 | 1018.9 |
| 20260503022504 | 10 | 0 | 0.0 | 0.0 | 0.00 | 0.00 | 0.00 | 53 | 1018.8 |
| 20260503022005 | 10 | 7 | 1.6 | 4.8 | 0.00 | 0.00 | 0.00 | 53 | 1018.8 |
| 20260503021004 | 10 | 6 | 3.2 | 6.4 | 0.00 | 0.00 | 0.00 | 53 | 1018.6 |
| 20260503020504 | 10 | 13 | 1.6 | 6.4 | 0.00 | 0.00 | 0.00 | 53 | 1018.6 |
| 20260503020007 | 10 | 14 | 3.2 | 8.0 | 0.00 | 0.00 | 0.00 | 53 | 1018.5 |
| 20260503015504 | 10 | 14 | 4.8 | 8.0 | 0.00 | 0.00 | 0.00 | 52 | 1018.4 |
| 20260503015004 | 10 | 8 | 3.2 | 9.7 | 0.00 | 0.00 | 0.00 | 52 | 1018.3 |
| 20260503014504 | 10 | 5 | 3.2 | 9.7 | 0.00 | 0.00 | 0.00 | 53 | 1018.3 |
| 20260503014004 | 10 | 10 | 3.2 | 9.7 | 0.00 | 0.00 | 0.00 | 53 | 1018.2 |
| 20260503013504 | 10 | 10 | 3.2 | 9.7 | 0.00 | 0.00 | 0.00 | 54 | 1018.2 |
| 20260503013004 | 11 | 11 | 3.2 | 8.0 | 0.00 | 0.00 | 0.00 | 54 | 1018.1 |
| 20260503012504 | 11 | 8 | 3.2 | 8.0 | 0.00 | 0.00 | 0.00 | 55 | 1018.0 |
| 20260503012004 | 11 | 8 | 3.2 | 9.7 | 0.00 | 0.00 | 0.00 | 55 | 1017.9 |
| 20260503011004 | 11 | 0 | 0.0 | 4.8 | 0.00 | 0.00 | 0.00 | 55 | 1017.7 |
| 20260503010504 | 11 | 0 | 0.0 | 6.4 | 0.00 | 0.00 | 0.00 | 54 | 1017.7 |
| 20260503010004 | 11 | 0 | 0.0 | 6.4 | 0.00 | 0.00 | 0.00 | 54 | 1017.6 |
| 20260503005506 | 11 | 0 | 0.0 | 3.2 | 0.00 | 0.00 | 0.00 | 53 | 1017.6 |
| 20260503004505 | 12 | 0 | 0.0 | 1.6 | 0.00 | 0.00 | 0.00 | 53 | 1017.4 |